Virginia Beach, VA

4:18 AM EST on December 06, 2016 (GMT -0500)
Norfolk International

Weather History for KORF - March, 2013

Change the Weather History Date:

Wednesday, March 6, 2013

  Actual Average Record
Temperature  
Mean Temperature 44 °F 46 °F  
Max Temperature 49 °F 55 °F 84 °F (1961)
Min Temperature 38 °F 38 °F 20 °F (1901)
Degree Days  
Heating Degree Days 21 19  
Month to date heating degree days 146 116  
Since 1 July heating degree days 2521 2685  
Cooling Degree Days 0 0  
Month to date cooling degree days 0 0  
Year to date cooling degree days 0 1  
Moisture  
Dew Point 39 °F    
Average Humidity 85    
Maximum Humidity 93    
Minimum Humidity 76    
Precipitation  
Precipitation 0.75 in 0.12 in 2.69 in (1979)
Month to date precipitation 0.93 0.70  
Year to date precipitation 8.49 7.22  
Snow  
Snow 0.00 in 0.00 in 7.00 in (1912)
Month to date snowfall 0.0 0.1  
Since 1 July snowfall 1.8 5.7  
Snow Depth 0.00 in    
Sea Level Pressure  
Sea Level Pressure 29.50 in    
Wind  
Wind Speed 17 mph (WNW)    
Max Wind Speed 40 mph    
Max Gust Speed 59 mph    
Visibility 7 miles    
Events Rain    
T = Trace of Precipitation, MM = Missing Value Source: NWS Daily Summary

Daily Weather History Graph

Daily Weather History Graph

Search for Another Location

Airport or City:

Trip Planner

Search our weather history database for the weather conditions in past years. The results will help you decide how hot, cold, wet, or windy it might be!

Date:

Astronomy

Mar. 06, 2013 Rise Set
Actual Time 6:28 AM EST 6:04 PM EST
Civil Twilight 6:02 AM EST 6:29 PM EST
Nautical Twilight 5:32 AM EST 7:00 PM EST
Astronomical Twilight 5:02 AM EST 7:30 PM EST
Moon 2:29 AM EST 12:49 PM EST
Length of Visible Light 12h 27m
Length of Day
11h 35m
Waning Crescent, 30% of the Moon is Illuminated
Mar 6
Waning Crescent
Mar 11
New
Mar 19
First Quarter
Mar 27
Full
Apr 3
Last Quarter

Hourly Weather History & Observations

Time (EST) Temp. Windchill Dew Point Humidity Pressure Visibility Wind Dir Wind Speed Gust Speed Precip Events Conditions
12:12 AM 42.8 °F 35.4 °F 39.2 °F 87% 29.69 in 4.0 mi East 15.0 mph 20.7 mph 0.05 in Rain Rain
12:51 AM 44.1 °F 37.4 °F 42.1 °F 93% 29.65 in 2.5 mi East 13.8 mph - 0.21 in Rain Heavy Rain
12:58 AM 44.6 °F 37.2 °F 42.8 °F 93% 29.64 in 3.0 mi East 17.3 mph 23.0 mph 0.04 in Rain Heavy Rain
1:44 AM 44.6 °F 37.4 °F 42.8 °F 93% 29.62 in 2.5 mi East 16.1 mph 25.3 mph 0.25 in Rain Rain
1:51 AM 45.0 °F 37.6 °F 43.0 °F 93% 29.62 in 2.5 mi ESE 17.3 mph 26.5 mph 0.29 in Rain Rain
2:00 AM 44.6 °F 37.2 °F 42.8 °F 93% 29.61 in 3.0 mi ESE 17.3 mph 24.2 mph 0.03 in Rain Rain
2:51 AM 46.0 °F 39.6 °F 44.1 °F 93% 29.55 in 5.0 mi East 15.0 mph 29.9 mph 0.12 in Rain Light Rain
3:51 AM 46.9 °F - 45.0 °F 93% 29.48 in 9.0 mi ESE 13.8 mph 19.6 mph 0.01 in   Overcast
4:51 AM 48.0 °F - 46.0 °F 93% 29.45 in 10.0 mi Variable 4.6 mph - N/A   Overcast
5:51 AM 48.0 °F - 46.0 °F 93% 29.41 in 10.0 mi ESE 8.1 mph - 0.00 in   Overcast
6:11 AM 48.2 °F - 46.4 °F 93% 29.39 in 9.0 mi East 9.2 mph - N/A   Overcast
6:44 AM 48.2 °F - 46.4 °F 93% 29.38 in 7.0 mi ESE 3.5 mph - N/A   Overcast
6:51 AM 48.0 °F - 46.0 °F 93% 29.38 in 7.0 mi Variable 3.5 mph - N/A   Overcast
7:06 AM 48.2 °F - 46.4 °F 93% 29.36 in 6.0 mi Calm Calm - 0.00 in Rain Light Rain
7:51 AM 48.9 °F - 46.9 °F 93% 29.37 in 6.0 mi SSW 13.8 mph - 0.00 in   Overcast
8:04 AM 48.2 °F - 46.4 °F 93% 29.36 in 7.0 mi SW 13.8 mph - N/A   Overcast
8:51 AM 43.0 °F 35.1 °F 39.9 °F 89% 29.37 in 10.0 mi WSW 17.3 mph 31.1 mph N/A   Overcast
9:06 AM 42.8 °F 35.4 °F 39.2 °F 87% 29.38 in 10.0 mi WSW 15.0 mph 27.6 mph N/A   Overcast
9:25 AM 41.0 °F 31.6 °F 37.4 °F 87% 29.37 in 10.0 mi SW 20.7 mph 28.8 mph N/A   Overcast
9:47 AM 39.2 °F 29.8 °F 35.6 °F 87% 29.38 in 10.0 mi WSW 18.4 mph 27.6 mph N/A   Overcast
9:51 AM 39.0 °F 29.9 °F 35.1 °F 86% 29.38 in 10.0 mi SW 17.3 mph 27.6 mph N/A   Overcast
10:51 AM 39.9 °F 30.8 °F 33.1 °F 77% 29.34 in 10.0 mi WSW 18.4 mph 31.1 mph N/A   Overcast
11:51 AM 39.9 °F 30.0 °F 32.0 °F 73% 29.33 in 10.0 mi WSW 21.9 mph 34.5 mph N/A   Overcast
12:49 PM 39.2 °F 30.2 °F 33.8 °F 81% 29.31 in 10.0 mi SW 17.3 mph 26.5 mph N/A   Overcast
12:51 PM 39.0 °F 31.0 °F 34.0 °F 82% 29.31 in 10.0 mi WSW 13.8 mph 26.5 mph N/A   Overcast
1:09 PM 37.4 °F 29.8 °F 33.8 °F 87% 29.30 in 5.0 mi WSW 11.5 mph 19.6 mph N/A   Overcast
1:51 PM 37.9 °F 32.1 °F 35.1 °F 89% 29.30 in 1.0 mi WSW 8.1 mph - N/A   Overcast
2:51 PM 39.9 °F 35.1 °F 37.0 °F 89% 29.32 in 1.0 mi Variable 6.9 mph 21.9 mph 0.01 in   Overcast
3:51 PM 39.9 °F 29.2 °F 37.0 °F 89% 29.40 in 1.0 mi North 25.3 mph 50.6 mph 0.01 in   Overcast
4:51 PM 39.0 °F 26.4 °F 36.0 °F 89% 29.49 in 1.0 mi North 34.5 mph 47.2 mph N/A   Overcast
5:23 PM 39.2 °F 28.7 °F 35.6 °F 87% 29.52 in 1.0 mi North 23.0 mph 47.2 mph 0.01 in   Overcast
5:51 PM 39.9 °F 29.2 °F 36.0 °F 86% 29.56 in 1.0 mi North 25.3 mph 44.9 mph 0.01 in Rain Light Rain
6:02 PM 41.0 °F 29.3 °F 35.6 °F 81% 29.58 in 6.0 mi North 33.4 mph 51.8 mph 0.00 in   Overcast
6:51 PM 41.0 °F 30.7 °F 36.0 °F 82% 29.66 in 9.0 mi North 25.3 mph 43.7 mph 0.01 in Rain Light Rain
7:51 PM 39.0 °F 29.0 °F 35.1 °F 86% 29.72 in 5.0 mi NNW 20.7 mph 41.4 mph 0.03 in Rain Light Rain
8:51 PM 39.0 °F 29.3 °F 35.1 °F 86% 29.76 in 8.0 mi NNW 19.6 mph 38.0 mph 0.03 in Rain Light Rain
9:51 PM 39.9 °F 30.2 °F 36.0 °F 86% 29.81 in 10.0 mi NNW 20.7 mph 34.5 mph 0.04 in Rain Light Rain
10:51 PM 41.0 °F 31.6 °F 35.1 °F 79% 29.83 in 10.0 mi NNW 20.7 mph 29.9 mph 0.00 in   Overcast
11:14 PM 41.0 °F 32.5 °F 35.6 °F 81% 29.84 in 10.0 mi North 17.3 mph 34.5 mph N/A   Overcast
11:51 PM 41.0 °F 31.6 °F 34.0 °F 76% 29.84 in 10.0 mi North 20.7 mph 35.7 mph N/A   Overcast